STARLINK-35868

Last updated on Wed Dec 31 2025 00:02:06 GMT+0000 (Coordinated Universal Time)

1 66579U 25268Y 25364.58335648 .00048525 00000+0 17633-2 0 9993 2 66579 43.0005 17.2507 0001143 242.8548 52.2477 15.27543595 6022
UTC large
Height (km)
Speed (km/s)
/
Latitude / Longitude
Inclination (degrees)
Orbital Period (minutes)
Azimuth
Elevation
Range (km)
Doppler Factor

Next 0 passes for location: London (51.5072 / 0.1276)

Sorry there are no passes over London.